Time,TemperatureF,DewpointF,PressureIn,WindDirection,WindDirectionDegrees,WindSpeedMPH,WindSpeedGustMPH,Humidity,HourlyPrecipIn,Conditions,Clouds,dailyrainin,SoftwareType,DateUTC
2013-05-13 00:00:00,45.9,31.0,28.91,South,180,2.0,4.0,56,0.00,,,0.00,WeatherDisplay:10.37,2013-05-13 05:00:00,
2013-05-13 00:05:00,45.7,30.9,28.91,South,180,3.5,3.5,56,0.00,,,0.00,WeatherDisplay:10.37,2013-05-13 05:05:00,
2013-05-13 00:10:00,45.1,31.7,28.91,South,180,3.5,3.5,59,0.00,,,0.00,WeatherDisplay:10.37,2013-05-13 05:10:00,
2013-05-13 00:15:00,44.8,31.7,28.91,South,180,3.5,3.5,60,0.00,,,0.00,WeatherDisplay:10.37,2013-05-13 05:15:00,
2013-05-13 00:20:00,44.8,30.9,28.91,South,180,2.3,2.3,58,0.00,,,0.00,WeatherDisplay:10.37,2013-05-13 05:20:00,
2013-05-13 00:25:00,45.1,31.2,28.91,South,180,4.6,4.6,58,0.00,,,0.00,WeatherDisplay:10.37,2013-05-13 05:25:00,
2013-05-13 00:30:00,45.1,31.7,28.91,South,180,3.5,3.5,59,0.00,,,0.00,WeatherDisplay:10.37,2013-05-13 05:30:00,
2013-05-13 00:35:00,45.1,32.1,28.91,South,180,3.5,3.5,60,0.00,,,0.00,WeatherDisplay:10.37,2013-05-13 05:35:00,
2013-05-13 00:40:00,45.1,31.2,28.91,South,180,3.5,3.5,58,0.00,,,0.00,WeatherDisplay:10.37,2013-05-13 05:40:00,
2013-05-13 00:45:00,45.7,30.4,28.91,SE,135,3.5,3.5,55,0.00,,,0.00,WeatherDisplay:10.37,2013-05-13 05:45:00,
2013-05-13 00:50:00,46.8,29.1,28.91,South,180,4.6,4.6,50,0.00,,,0.00,WeatherDisplay:10.37,2013-05-13 05:50:00,
2013-05-13 00:55:00,47.8,29.1,28.91,SE,135,3.5,3.5,48,0.00,,,0.00,WeatherDisplay:10.37,2013-05-13 05:55:00,
2013-05-13 01:00:00,48.2,28.9,28.91,South,180,4.6,4.6,47,0.00,,,0.00,WeatherDisplay:10.37,2013-05-13 06:00:00,
2013-05-13 01:05:00,48.2,28.9,28.91,South,180,2.3,2.3,47,0.00,,,0.00,WeatherDisplay:10.37,2013-05-13 06:05:00,
2013-05-13 01:11:00,47.8,30.1,28.91,SE,135,3.5,3.5,50,0.00,,,0.00,WeatherDisplay:10.37,2013-05-13 06:11:00,
2013-05-13 01:16:00,47.7,29.9,28.91,SE,135,3.5,3.5,50,0.00,,,0.00,WeatherDisplay:10.37,2013-05-13 06:16:00,
2013-05-13 01:21:00,47.7,29.9,28.91,South,180,3.5,3.5,50,0.00,,,0.00,WeatherDisplay:10.37,2013-05-13 06:21:00,
2013-05-13 01:26:00,47.7,31.8,28.90,South,180,3.5,3.5,54,0.00,,,0.00,WeatherDisplay:10.37,2013-05-13 06:26:00,
2013-05-13 01:31:00,46.9,31.6,28.90,SW,225,3.5,3.5,55,0.00,,,0.00,WeatherDisplay:10.37,2013-05-13 06:31:00,
2013-05-13 01:36:00,46.6,31.7,28.90,South,180,3.5,3.5,56,0.00,,,0.00,WeatherDisplay:10.37,2013-05-13 06:36:00,
2013-05-13 01:42:00,46.4,31.1,28.91,SW,225,2.3,2.3,55,0.00,,,0.00,WeatherDisplay:10.37,2013-05-13 06:42:00,
2013-05-13 01:47:00,46.2,31.4,28.91,South,180,2.3,2.3,56,0.00,,,0.00,WeatherDisplay:10.37,2013-05-13 06:47:00,
2013-05-13 01:52:00,46.2,31.8,28.90,South,180,2.3,2.3,57,0.00,,,0.00,WeatherDisplay:10.37,2013-05-13 06:52:00,
2013-05-13 01:57:00,46.0,31.6,28.90,South,180,2.3,2.3,57,0.00,,,0.00,WeatherDisplay:10.37,2013-05-13 06:57:00,
2013-05-13 02:02:00,46.0,31.6,28.90,South,180,2.3,2.3,57,0.00,,,0.00,WeatherDisplay:10.37,2013-05-13 07:02:00,
2013-05-13 02:07:00,46.0,32.1,28.90,South,180,3.5,3.5,58,0.00,,,0.00,WeatherDisplay:10.37,2013-05-13 07:07:00,
2013-05-13 02:13:00,46.0,32.1,28.90,South,180,3.5,3.5,58,0.00,,,0.00,WeatherDisplay:10.37,2013-05-13 07:13:00,
2013-05-13 02:18:00,46.0,32.1,28.90,South,180,3.5,3.5,58,0.00,,,0.00,WeatherDisplay:10.37,2013-05-13 07:18:00,
2013-05-13 02:23:00,45.9,30.6,28.90,South,180,4.6,4.6,55,0.00,,,0.00,WeatherDisplay:10.37,2013-05-13 07:23:00,
2013-05-13 02:29:00,46.4,31.1,28.90,South,180,3.5,3.5,55,0.00,,,0.00,WeatherDisplay:10.37,2013-05-13 07:29:00,
2013-05-13 02:34:00,46.4,31.5,28.90,South,180,3.5,3.5,56,0.00,,,0.00,WeatherDisplay:10.37,2013-05-13 07:34:00,
2013-05-13 02:39:00,45.9,32.3,28.89,SE,135,3.5,3.5,59,0.00,,,0.00,WeatherDisplay:10.37,2013-05-13 07:39:00,
2013-05-13 02:44:00,45.5,32.0,28.89,SE,135,3.5,3.5,59,0.00,,,0.00,WeatherDisplay:10.37,2013-05-13 07:44:00,
2013-05-13 02:49:00,45.5,32.0,28.89,South,180,3.5,3.5,59,0.00,,,0.00,WeatherDisplay:10.37,2013-05-13 07:49:00,
2013-05-13 02:54:00,45.3,32.2,28.88,South,180,3.8,3.8,60,0.00,,,0.00,WeatherDisplay:10.37,2013-05-13 07:54:00,
2013-05-13 02:59:00,45.0,31.9,28.88,SSE,158,3.5,3.5,60,0.00,,,0.00,WeatherDisplay:10.37,2013-05-13 07:59:00,
2013-05-13 03:04:00,45.0,31.9,28.88,South,180,5.8,5.8,60,0.00,,,0.00,WeatherDisplay:10.37,2013-05-13 08:04:00,
2013-05-13 03:09:00,45.0,31.9,28.88,South,180,3.5,3.5,60,0.00,,,0.00,WeatherDisplay:10.37,2013-05-13 08:09:00,
2013-05-13 03:15:00,44.8,32.1,28.88,South,184,2.0,6.0,61,0.00,,,0.00,WeatherDisplay:10.37,2013-05-13 08:15:00,
2013-05-13 03:20:00,44.8,30.9,28.88,South,180,4.6,4.6,58,0.00,,,0.00,WeatherDisplay:10.37,2013-05-13 08:20:00,
2013-05-13 03:25:00,45.3,31.8,28.88,South,180,4.6,4.6,59,0.00,,,0.00,WeatherDisplay:10.37,2013-05-13 08:25:00,
2013-05-13 03:30:00,45.5,32.0,28.88,SE,135,5.8,5.8,59,0.00,,,0.00,WeatherDisplay:10.37,2013-05-13 08:30:00,
2013-05-13 03:35:00,45.5,31.6,28.88,South,180,4.6,4.6,58,0.00,,,0.00,WeatherDisplay:10.37,2013-05-13 08:35:00,
2013-05-13 03:40:00,45.5,31.6,28.88,SE,135,3.5,3.5,58,0.00,,,0.00,WeatherDisplay:10.37,2013-05-13 08:40:00,
2013-05-13 03:46:00,45.7,31.3,28.88,SE,135,5.8,5.8,57,0.00,,,0.00,WeatherDisplay:10.37,2013-05-13 08:46:00,
2013-05-13 03:51:00,46.0,30.3,28.88,SE,135,6.9,6.9,54,0.00,,,0.00,WeatherDisplay:10.37,2013-05-13 08:51:00,
2013-05-13 03:56:00,46.6,29.9,28.88,SE,135,8.1,8.1,52,0.00,,,0.00,WeatherDisplay:10.37,2013-05-13 08:56:00,
2013-05-13 04:01:00,46.6,30.3,28.88,SSE,158,6.9,6.9,53,0.00,,,0.00,WeatherDisplay:10.37,2013-05-13 09:01:00,
2013-05-13 04:06:00,46.6,30.3,28.88,SSE,158,6.9,6.9,53,0.00,,,0.00,WeatherDisplay:10.37,2013-05-13 09:06:00,
2013-05-13 04:12:00,45.9,30.6,28.87,South,180,5.8,5.8,55,0.00,,,0.00,WeatherDisplay:10.37,2013-05-13 09:12:00,
2013-05-13 04:17:00,45.5,30.7,28.87,South,180,3.5,3.5,56,0.00,,,0.00,WeatherDisplay:10.37,2013-05-13 09:17:00,
2013-05-13 04:22:00,45.1,30.8,28.87,South,180,4.6,4.6,57,0.00,,,0.00,WeatherDisplay:10.37,2013-05-13 09:22:00,
2013-05-13 04:27:00,45.0,31.1,28.87,SSE,158,4.6,4.6,58,0.00,,,0.00,WeatherDisplay:10.37,2013-05-13 09:27:00,
2013-05-13 04:32:00,45.0,31.1,28.87,South,180,5.8,5.8,58,0.00,,,0.00,WeatherDisplay:10.37,2013-05-13 09:32:00,
2013-05-13 04:38:00,45.1,30.8,28.87,South,180,6.9,6.9,57,0.00,,,0.00,WeatherDisplay:10.37,2013-05-13 09:38:00,
2013-05-13 04:43:00,45.7,30.9,28.87,SE,135,8.1,8.1,56,0.00,,,0.00,WeatherDisplay:10.37,2013-05-13 09:43:00,
2013-05-13 04:48:00,45.9,31.0,28.87,South,180,5.8,5.8,56,0.00,,,0.00,WeatherDisplay:10.37,2013-05-13 09:48:00,
2013-05-13 04:53:00,45.9,31.5,28.87,South,180,5.8,5.8,57,0.00,,,0.00,WeatherDisplay:10.37,2013-05-13 09:53:00,
2013-05-13 04:59:00,45.5,31.1,28.87,South,180,5.8,5.8,57,0.00,,,0.00,WeatherDisplay:10.37,2013-05-13 09:59:00,
2013-05-13 05:04:00,45.5,31.6,28.86,South,180,5.8,5.8,58,0.00,,,0.00,WeatherDisplay:10.37,2013-05-13 10:04:00,
2013-05-13 05:09:00,45.0,31.5,28.87,South,180,4.6,4.6,59,0.00,,,0.00,WeatherDisplay:10.37,2013-05-13 10:09:00,
2013-05-13 05:14:00,44.8,31.3,28.87,South,180,4.6,4.6,59,0.00,,,0.00,WeatherDisplay:10.37,2013-05-13 10:14:00,
2013-05-13 05:19:00,44.6,31.6,28.87,South,180,3.5,3.5,60,0.00,,,0.00,WeatherDisplay:10.37,2013-05-13 10:19:00,
2013-05-13 05:25:00,44.8,31.3,28.87,South,180,5.8,5.8,59,0.00,,,0.00,WeatherDisplay:10.37,2013-05-13 10:25:00,
2013-05-13 05:30:00,44.6,31.1,28.87,South,180,4.6,4.6,59,0.00,,,0.00,WeatherDisplay:10.37,2013-05-13 10:30:00,
2013-05-13 05:35:00,44.6,31.1,28.87,South,180,5.8,5.8,59,0.00,,,0.00,WeatherDisplay:10.37,2013-05-13 10:35:00,
2013-05-13 05:40:00,44.4,31.4,28.87,South,180,4.6,4.6,60,0.00,,,0.00,WeatherDisplay:10.37,2013-05-13 10:40:00,
2013-05-13 05:45:00,44.4,31.8,28.87,South,180,4.6,4.6,61,0.00,,,0.00,WeatherDisplay:10.37,2013-05-13 10:45:00,
2013-05-13 05:50:00,44.4,31.8,28.87,South,180,5.8,5.8,61,0.00,,,0.00,WeatherDisplay:10.37,2013-05-13 10:50:00,
2013-05-13 05:56:00,44.8,32.1,28.87,South,180,5.8,5.8,61,0.00,,,0.00,WeatherDisplay:10.37,2013-05-13 10:56:00,
2013-05-13 06:01:00,45.0,31.9,28.87,SE,135,5.8,5.8,60,0.00,,,0.00,WeatherDisplay:10.37,2013-05-13 11:01:00,
2013-05-13 06:06:00,45.5,31.6,28.86,SE,135,5.8,5.8,58,0.00,,,0.00,WeatherDisplay:10.37,2013-05-13 11:06:00,
2013-05-13 06:11:00,46.0,32.1,28.87,South,180,6.9,6.9,58,0.00,,,0.00,WeatherDisplay:10.37,2013-05-13 11:11:00,
2013-05-13 06:17:00,46.6,32.1,28.85,SE,135,8.1,8.1,57,0.00,,,0.00,WeatherDisplay:10.37,2013-05-13 11:17:00,
2013-05-13 06:22:00,46.6,32.1,28.85,SE,135,8.1,8.1,57,0.00,,,0.00,WeatherDisplay:10.37,2013-05-13 11:22:00,
2013-05-13 06:27:00,47.1,32.7,28.85,South,180,10.4,10.4,57,0.00,,,0.00,WeatherDisplay:10.37,2013-05-13 11:27:00,
2013-05-13 06:32:00,47.3,32.8,28.85,SSE,158,11.5,11.5,57,0.00,,,0.00,WeatherDisplay:10.37,2013-05-13 11:32:00,
2013-05-13 06:38:00,47.8,33.8,28.85,SSE,158,8.1,8.1,58,0.00,,,0.00,WeatherDisplay:10.37,2013-05-13 11:38:00,
2013-05-13 06:43:00,48.4,33.8,28.85,South,180,10.4,10.4,57,0.00,,,0.00,WeatherDisplay:10.37,2013-05-13 11:43:00,
2013-05-13 06:48:00,48.6,34.0,28.85,South,180,11.5,11.5,57,0.00,,,0.00,WeatherDisplay:10.37,2013-05-13 11:48:00,
2013-05-13 06:53:00,48.6,34.0,28.85,SE,135,12.7,12.7,57,0.00,,,0.00,WeatherDisplay:10.37,2013-05-13 11:53:00,
2013-05-13 06:59:00,48.7,34.6,28.84,SSE,158,12.7,12.7,58,0.00,,,0.00,WeatherDisplay:10.37,2013-05-13 11:59:00,
2013-05-13 07:04:00,48.9,34.8,28.84,SE,135,12.7,12.7,58,0.00,,,0.00,WeatherDisplay:10.37,2013-05-13 12:04:00,
2013-05-13 07:09:00,49.5,35.7,28.84,South,180,10.7,10.7,59,0.00,,,0.00,WeatherDisplay:10.37,2013-05-13 12:09:00,
2013-05-13 07:14:00,49.8,36.1,28.84,SSE,158,10.4,10.4,59,0.00,,,0.00,WeatherDisplay:10.37,2013-05-13 12:14:00,
2013-05-13 07:19:00,50.2,36.4,28.84,South,180,10.4,10.4,59,0.00,,,0.00,WeatherDisplay:10.37,2013-05-13 12:19:00,
2013-05-13 07:24:00,50.4,36.6,28.84,SE,135,12.7,12.7,59,0.00,,,0.00,WeatherDisplay:10.37,2013-05-13 12:24:00,
2013-05-13 07:29:00,50.7,36.9,28.84,South,180,12.7,12.7,59,0.00,,,0.00,WeatherDisplay:10.37,2013-05-13 12:29:00,
2013-05-13 07:35:00,50.9,37.1,28.84,South,180,12.7,12.7,59,0.00,,,0.00,WeatherDisplay:10.37,2013-05-13 12:35:00,
2013-05-13 07:40:00,51.1,37.7,28.84,South,180,12.7,12.7,60,0.00,,,0.00,WeatherDisplay:10.37,2013-05-13 12:40:00,
2013-05-13 07:45:00,51.4,38.0,28.84,SE,135,12.7,12.7,60,0.00,,,0.00,WeatherDisplay:10.37,2013-05-13 12:45:00,
2013-05-13 07:50:00,52.0,38.5,28.84,South,180,10.4,10.4,60,0.00,,,0.00,WeatherDisplay:10.37,2013-05-13 12:50:00,
2013-05-13 07:55:00,52.7,39.6,28.84,SSE,158,12.7,12.7,61,0.00,,,0.00,WeatherDisplay:10.37,2013-05-13 12:55:00,
2013-05-13 08:00:00,53.1,39.5,28.83,South,180,13.8,13.8,60,0.00,,,0.00,WeatherDisplay:10.37,2013-05-13 13:00:00,
2013-05-13 08:05:00,53.1,39.5,28.83,South,180,12.7,12.7,60,0.00,,,0.00,WeatherDisplay:10.37,2013-05-13 13:05:00,
2013-05-13 08:11:00,53.2,39.7,28.83,South,180,16.1,16.1,60,0.00,,,0.00,WeatherDisplay:10.37,2013-05-13 13:11:00,
2013-05-13 08:16:00,53.2,40.1,28.83,South,180,17.3,17.3,61,0.00,,,0.00,WeatherDisplay:10.37,2013-05-13 13:16:00,
2013-05-13 08:21:00,53.2,40.1,28.83,South,180,16.1,16.1,61,0.00,,,0.00,WeatherDisplay:10.37,2013-05-13 13:21:00,
2013-05-13 08:26:00,53.6,40.5,28.83,South,180,12.7,12.7,61,0.00,,,0.00,WeatherDisplay:10.37,2013-05-13 13:26:00,
2013-05-13 08:31:00,54.0,40.8,28.83,SE,135,13.8,13.8,61,0.00,,,0.00,WeatherDisplay:10.37,2013-05-13 13:31:00,
2013-05-13 08:36:00,54.7,41.5,28.83,South,180,15.0,15.0,61,0.00,,,0.00,WeatherDisplay:10.37,2013-05-13 13:36:00,
2013-05-13 08:42:00,55.9,41.8,28.83,South,180,17.3,17.3,59,0.00,,,0.00,WeatherDisplay:10.37,2013-05-13 13:42:00,
2013-05-13 08:47:00,56.1,42.0,28.82,South,180,17.3,17.3,59,0.00,,,0.00,WeatherDisplay:10.37,2013-05-13 13:47:00,
2013-05-13 08:52:00,56.8,42.2,28.82,South,180,16.1,16.1,58,0.00,,,0.00,WeatherDisplay:10.37,2013-05-13 13:52:00,
2013-05-13 08:57:00,57.4,43.2,28.82,South,180,15.0,15.0,59,0.00,,,0.00,WeatherDisplay:10.37,2013-05-13 13:57:00,
2013-05-13 09:02:00,58.1,42.9,28.82,SSE,158,16.1,16.1,57,0.00,,,0.00,WeatherDisplay:10.37,2013-05-13 14:02:00,
2013-05-13 09:07:00,58.8,43.6,28.82,SSE,158,16.1,16.1,57,0.00,,,0.00,WeatherDisplay:10.37,2013-05-13 14:07:00,
2013-05-13 09:13:00,59.7,44.5,28.82,South,180,15.0,15.0,57,0.00,,,0.00,WeatherDisplay:10.37,2013-05-13 14:13:00,
2013-05-13 09:18:00,60.4,43.7,28.82,South,180,18.4,18.4,54,0.00,,,0.00,WeatherDisplay:10.37,2013-05-13 14:18:00,
2013-05-13 09:23:00,61.0,44.7,28.81,South,180,17.3,17.3,55,0.00,,,0.00,WeatherDisplay:10.37,2013-05-13 14:23:00,
2013-05-13 09:28:00,61.2,44.4,28.82,South,180,19.6,19.6,54,0.00,,,0.00,WeatherDisplay:10.37,2013-05-13 14:28:00,
2013-05-13 09:33:00,61.3,44.5,28.81,South,180,19.6,19.6,54,0.00,,,0.00,WeatherDisplay:10.37,2013-05-13 14:33:00,
2013-05-13 09:38:00,62.1,44.7,28.81,South,180,19.6,19.6,53,0.00,,,0.00,WeatherDisplay:10.37,2013-05-13 14:38:00,
2013-05-13 09:44:00,62.2,44.9,28.80,South,180,20.7,20.7,53,0.00,,,0.00,WeatherDisplay:10.37,2013-05-13 14:44:00,
2013-05-13 09:49:00,62.2,45.4,28.80,South,180,22.2,22.2,54,0.00,,,0.00,WeatherDisplay:10.37,2013-05-13 14:49:00,
2013-05-13 09:54:00,63.1,45.7,28.80,SSW,202,19.6,19.6,53,0.00,,,0.00,WeatherDisplay:10.37,2013-05-13 14:54:00,
2013-05-13 09:59:00,63.3,45.4,28.79,South,180,21.9,21.9,52,0.00,,,0.00,WeatherDisplay:10.37,2013-05-13 14:59:00,
2013-05-13 10:04:00,63.5,46.1,28.79,South,180,17.3,17.3,53,0.00,,,0.00,WeatherDisplay:10.37,2013-05-13 15:04:00,
2013-05-13 10:09:00,64.6,46.6,28.79,South,180,23.0,23.0,52,0.00,,,0.00,WeatherDisplay:10.37,2013-05-13 15:09:00,
2013-05-13 10:15:00,65.3,46.2,28.79,South,180,17.3,17.3,50,0.00,,,0.00,WeatherDisplay:10.37,2013-05-13 15:15:00,
2013-05-13 10:20:00,65.7,47.0,28.79,South,180,19.6,19.6,51,0.00,,,0.00,WeatherDisplay:10.37,2013-05-13 15:20:00,
2013-05-13 10:25:00,65.8,46.7,28.79,South,180,18.4,18.4,50,0.00,,,0.00,WeatherDisplay:10.37,2013-05-13 15:25:00,
2013-05-13 10:30:00,66.4,47.7,28.79,South,180,19.6,19.6,51,0.00,,,0.00,WeatherDisplay:10.37,2013-05-13 15:30:00,
2013-05-13 10:35:00,68.4,47.9,28.78,South,180,17.3,17.3,48,0.00,,,0.00,WeatherDisplay:10.37,2013-05-13 15:35:00,
2013-05-13 10:40:00,68.5,47.5,28.78,South,180,19.6,19.6,47,0.00,,,0.00,WeatherDisplay:10.37,2013-05-13 15:40:00,
2013-05-13 10:45:00,68.4,47.9,28.78,South,180,19.6,19.6,48,0.00,,,0.00,WeatherDisplay:10.37,2013-05-13 15:45:00,
2013-05-13 10:50:00,68.9,48.4,28.78,SW,225,16.1,16.1,48,0.00,,,0.00,WeatherDisplay:10.37,2013-05-13 15:50:00,
2013-05-13 10:56:00,69.1,48.6,28.78,South,180,18.4,18.4,48,0.00,,,0.00,WeatherDisplay:10.37,2013-05-13 15:56:00,
2013-05-13 11:01:00,69.3,48.7,28.77,South,180,18.4,18.4,48,0.00,,,0.00,WeatherDisplay:10.37,2013-05-13 16:01:00,
2013-05-13 11:06:00,69.6,47.9,28.77,South,180,23.0,23.0,46,0.00,,,0.00,WeatherDisplay:10.37,2013-05-13 16:06:00,
2013-05-13 11:11:00,70.5,48.1,28.76,South,180,18.4,18.4,45,0.00,,,0.00,WeatherDisplay:10.37,2013-05-13 16:11:00,
2013-05-13 11:16:00,70.5,48.1,28.76,South,180,21.9,21.9,45,0.00,,,0.00,WeatherDisplay:10.37,2013-05-13 16:16:00,
2013-05-13 11:22:00,70.9,49.1,28.76,South,180,18.4,18.4,46,0.00,,,0.00,WeatherDisplay:10.37,2013-05-13 16:22:00,
2013-05-13 11:27:00,72.0,48.9,28.76,South,180,19.6,19.6,44,0.00,,,0.00,WeatherDisplay:10.37,2013-05-13 16:27:00,
2013-05-13 11:32:00,72.0,48.2,28.76,South,180,20.7,20.7,43,0.00,,,0.00,WeatherDisplay:10.37,2013-05-13 16:32:00,
2013-05-13 11:37:00,72.0,48.2,28.75,South,180,19.6,19.6,43,0.00,,,0.00,WeatherDisplay:10.37,2013-05-13 16:37:00,
2013-05-13 11:42:00,73.4,49.5,28.75,South,180,23.0,23.0,43,0.00,,,0.00,WeatherDisplay:10.37,2013-05-13 16:42:00,
2013-05-13 11:47:00,73.9,48.7,28.75,South,180,22.2,22.2,41,0.00,,,0.00,WeatherDisplay:10.37,2013-05-13 16:47:00,
2013-05-13 11:52:00,74.3,49.1,28.75,South,180,19.6,19.6,41,0.00,,,0.00,WeatherDisplay:10.37,2013-05-13 16:52:00,
2013-05-13 11:57:00,74.5,48.6,28.75,South,180,24.2,24.2,40,0.00,,,0.00,WeatherDisplay:10.37,2013-05-13 16:57:00,
2013-05-13 12:02:00,75.2,49.2,28.75,South,180,17.3,17.3,40,0.00,,,0.00,WeatherDisplay:10.37,2013-05-13 17:02:00,
2013-05-13 12:08:00,75.2,48.5,28.75,South,180,24.2,24.2,39,0.00,,,0.00,WeatherDisplay:10.37,2013-05-13 17:08:00,
2013-05-13 12:13:00,75.9,49.2,28.74,South,180,21.9,21.9,39,0.00,,,0.00,WeatherDisplay:10.37,2013-05-13 17:13:00,
2013-05-13 12:18:00,76.6,48.4,28.74,South,180,22.2,22.2,37,0.00,,,0.00,WeatherDisplay:10.37,2013-05-13 17:18:00,
2013-05-13 12:24:00,76.6,49.1,28.73,South,180,21.9,21.9,38,0.00,,,0.00,WeatherDisplay:10.37,2013-05-13 17:24:00,
2013-05-13 12:29:00,77.4,50.5,28.73,South,180,24.2,24.2,39,0.00,,,0.00,WeatherDisplay:10.37,2013-05-13 17:29:00,
2013-05-13 12:34:00,77.5,49.2,28.73,South,180,21.9,21.9,37,0.00,,,0.00,WeatherDisplay:10.37,2013-05-13 17:34:00,
2013-05-13 12:39:00,77.9,50.2,28.73,South,180,25.3,25.3,38,0.00,,,0.00,WeatherDisplay:10.37,2013-05-13 17:39:00,
2013-05-13 12:44:00,78.4,48.5,28.73,SW,225,23.0,23.0,35,0.00,,,0.00,WeatherDisplay:10.37,2013-05-13 17:44:00,
2013-05-13 12:49:00,78.8,48.8,28.72,SSW,202,20.7,20.7,35,0.00,,,0.00,WeatherDisplay:10.37,2013-05-13 17:49:00,
2013-05-13 12:55:00,78.6,47.1,28.72,South,180,26.5,26.5,33,0.00,,,0.00,WeatherDisplay:10.37,2013-05-13 17:55:00,
2013-05-13 13:00:00,78.4,48.5,28.72,SW,225,21.9,21.9,35,0.00,,,0.00,WeatherDisplay:10.37,2013-05-13 18:00:00,
2013-05-13 13:05:00,79.7,48.8,28.71,South,180,25.3,25.3,34,0.00,,,0.00,WeatherDisplay:10.37,2013-05-13 18:05:00,
2013-05-13 13:10:00,80.4,47.9,28.71,SW,225,27.6,27.6,32,0.00,,,0.00,WeatherDisplay:10.37,2013-05-13 18:10:00,
2013-05-13 13:15:00,80.6,48.0,28.70,SW,225,28.8,28.8,32,0.00,,,0.00,WeatherDisplay:10.37,2013-05-13 18:15:00,
2013-05-13 13:20:00,81.1,48.5,28.70,SW,225,25.3,25.3,32,0.00,,,0.00,WeatherDisplay:10.37,2013-05-13 18:20:00,
2013-05-13 13:25:00,81.0,47.5,28.70,SW,225,29.9,29.9,31,0.00,,,0.00,WeatherDisplay:10.37,2013-05-13 18:25:00,
2013-05-13 13:30:00,81.5,48.8,28.70,SW,225,23.0,23.0,32,0.00,,,0.00,WeatherDisplay:10.37,2013-05-13 18:30:00,
2013-05-13 13:35:00,81.5,47.1,28.69,SSW,202,29.9,29.9,30,0.00,,,0.00,WeatherDisplay:10.37,2013-05-13 18:35:00,
2013-05-13 13:41:00,82.0,46.6,28.69,South,180,23.0,23.0,29,0.00,,,0.00,WeatherDisplay:10.37,2013-05-13 18:41:00,
2013-05-13 13:46:00,82.6,47.1,28.69,SW,225,26.5,26.5,29,0.00,,,0.00,WeatherDisplay:10.37,2013-05-13 18:46:00,
2013-05-13 13:51:00,82.8,47.3,28.68,SW,225,29.9,29.9,29,0.00,,,0.00,WeatherDisplay:10.37,2013-05-13 18:51:00,
2013-05-13 13:56:00,82.6,45.2,28.68,SW,225,28.8,28.8,27,0.00,,,0.00,WeatherDisplay:10.37,2013-05-13 18:56:00,
2013-05-13 14:01:00,82.6,45.2,28.68,SW,225,29.9,29.9,27,0.00,,,0.00,WeatherDisplay:10.37,2013-05-13 19:01:00,
2013-05-13 14:06:00,83.1,45.7,28.67,SW,225,26.5,26.5,27,0.00,,,0.00,WeatherDisplay:10.37,2013-05-13 19:06:00,
2013-05-13 14:11:00,82.9,44.5,28.67,SW,225,31.1,31.1,26,0.00,,,0.00,WeatherDisplay:10.37,2013-05-13 19:11:00,
2013-05-13 14:17:00,83.8,45.3,28.67,SW,225,28.8,28.8,26,0.00,,,0.00,WeatherDisplay:10.37,2013-05-13 19:17:00,
2013-05-13 14:22:00,83.8,46.3,28.67,SW,225,29.9,29.9,27,0.00,,,0.00,WeatherDisplay:10.37,2013-05-13 19:22:00,
2013-05-13 14:27:00,84.0,45.4,28.66,South,180,27.6,27.6,26,0.00,,,0.00,WeatherDisplay:10.37,2013-05-13 19:27:00,
2013-05-13 14:32:00,84.6,44.9,28.67,SSW,202,28.8,28.8,25,0.00,,,0.00,WeatherDisplay:10.37,2013-05-13 19:32:00,
2013-05-13 14:37:00,84.2,43.5,28.67,SW,225,28.8,28.8,24,0.00,,,0.00,WeatherDisplay:10.37,2013-05-13 19:37:00,
2013-05-13 14:42:00,84.7,45.0,28.66,SW,225,27.6,27.6,25,0.00,,,0.00,WeatherDisplay:10.37,2013-05-13 19:42:00,
2013-05-13 14:47:00,84.9,43.0,28.66,SW,225,28.8,28.8,23,0.00,,,0.00,WeatherDisplay:10.37,2013-05-13 19:47:00,
2013-05-13 14:52:00,85.3,45.5,28.66,SW,225,27.6,27.6,25,0.00,,,0.00,WeatherDisplay:10.37,2013-05-13 19:52:00,
2013-05-13 14:58:00,85.3,44.4,28.66,SW,225,28.8,28.8,24,0.00,,,0.00,WeatherDisplay:10.37,2013-05-13 19:58:00,
2013-05-13 15:03:00,85.5,43.4,28.66,SW,225,26.5,26.5,23,0.00,,,0.00,WeatherDisplay:10.37,2013-05-13 20:03:00,
2013-05-13 15:08:00,85.6,44.7,28.66,SW,225,29.9,29.9,24,0.00,,,0.00,WeatherDisplay:10.37,2013-05-13 20:08:00,
2013-05-13 15:13:00,86.0,43.9,28.65,SSW,202,29.9,29.9,23,0.00,,,0.00,WeatherDisplay:10.37,2013-05-13 20:13:00,
2013-05-13 15:18:00,86.0,45.0,28.66,SW,225,20.7,20.7,24,0.00,,,0.00,WeatherDisplay:10.37,2013-05-13 20:18:00,
2013-05-13 15:23:00,86.0,45.0,28.65,SW,225,23.0,23.0,24,0.00,,,0.00,WeatherDisplay:10.37,2013-05-13 20:23:00,
2013-05-13 15:28:00,86.2,42.9,28.64,SW,225,24.2,24.2,22,0.00,,,0.00,WeatherDisplay:10.37,2013-05-13 20:28:00,
2013-05-13 15:34:00,86.5,45.5,28.64,South,180,26.5,26.5,24,0.00,,,0.00,WeatherDisplay:10.37,2013-05-13 20:34:00,
2013-05-13 15:39:00,87.3,43.8,28.64,South,180,26.5,26.5,22,0.00,,,0.00,WeatherDisplay:10.37,2013-05-13 20:39:00,
2013-05-13 15:44:00,87.8,43.0,28.64,SW,225,20.7,20.7,21,0.00,,,0.00,WeatherDisplay:10.37,2013-05-13 20:44:00,
2013-05-13 15:49:00,88.0,43.1,28.64,SW,225,24.2,24.2,21,0.00,,,0.00,WeatherDisplay:10.37,2013-05-13 20:49:00,
2013-05-13 15:54:00,88.2,43.3,28.64,South,180,20.7,20.7,21,0.00,,,0.00,WeatherDisplay:10.37,2013-05-13 20:54:00,
2013-05-13 16:00:00,88.2,43.4,28.63,SW,227,14.0,28.0,21,0.00,,,0.00,WeatherDisplay:10.37,2013-05-13 21:00:00,
2013-05-13 16:05:00,88.2,44.5,28.63,SW,225,26.5,26.5,22,0.00,,,0.00,WeatherDisplay:10.37,2013-05-13 21:05:00,
2013-05-13 16:10:00,88.5,43.6,28.63,SSW,202,26.5,26.5,21,0.00,,,0.00,WeatherDisplay:10.37,2013-05-13 21:10:00,
2013-05-13 16:15:00,88.3,44.7,28.63,SW,225,23.0,23.0,22,0.00,,,0.00,WeatherDisplay:10.37,2013-05-13 21:15:00,
2013-05-13 16:20:00,88.3,43.4,28.62,SSW,202,29.9,29.9,21,0.00,,,0.00,WeatherDisplay:10.37,2013-05-13 21:20:00,
2013-05-13 16:26:00,88.3,43.4,28.62,SSW,202,26.5,26.5,21,0.00,,,0.00,WeatherDisplay:10.37,2013-05-13 21:26:00,
2013-05-13 16:31:00,89.1,45.3,28.61,SW,225,20.7,20.7,22,0.00,,,0.00,WeatherDisplay:10.37,2013-05-13 21:31:00,
2013-05-13 16:36:00,88.9,45.1,28.61,North,10,20.7,20.7,22,0.00,,,0.00,WeatherDisplay:10.37,2013-05-13 21:36:00,
2013-05-13 16:41:00,88.9,45.1,28.62,NW,315,19.6,19.6,22,0.00,,,0.00,WeatherDisplay:10.37,2013-05-13 21:41:00,
2013-05-13 16:46:00,89.2,46.6,28.61,NW,315,17.3,17.3,23,0.00,,,0.00,WeatherDisplay:10.37,2013-05-13 21:46:00,
2013-05-13 16:51:00,89.6,45.7,28.61,SW,225,18.4,18.4,22,0.00,,,0.00,WeatherDisplay:10.37,2013-05-13 21:51:00,
2013-05-13 16:56:00,89.8,47.0,28.60,SW,225,19.6,19.6,23,0.00,,,0.00,WeatherDisplay:10.37,2013-05-13 21:56:00,
2013-05-13 17:01:00,89.8,47.0,28.60,NW,315,19.6,19.6,23,0.00,,,0.00,WeatherDisplay:10.37,2013-05-13 22:01:00,
2013-05-13 17:06:00,90.0,47.2,28.60,SSW,202,19.6,19.6,23,0.00,,,0.00,WeatherDisplay:10.37,2013-05-13 22:06:00,
2013-05-13 17:12:00,90.1,47.3,28.60,SW,225,23.0,23.0,23,0.00,,,0.00,WeatherDisplay:10.37,2013-05-13 22:12:00,
2013-05-13 17:17:00,90.1,47.3,28.60,SW,225,15.0,15.0,23,0.00,,,0.00,WeatherDisplay:10.37,2013-05-13 22:17:00,
2013-05-13 17:22:00,90.3,48.6,28.60,West,270,13.8,13.8,24,0.00,,,0.00,WeatherDisplay:10.37,2013-05-13 22:22:00,
2013-05-13 17:27:00,90.3,47.5,28.60,SW,225,16.1,16.1,23,0.00,,,0.00,WeatherDisplay:10.37,2013-05-13 22:27:00,
2013-05-13 17:33:00,90.1,47.3,28.60,SW,225,24.2,24.2,23,0.00,,,0.00,WeatherDisplay:10.37,2013-05-13 22:33:00,
2013-05-13 17:38:00,90.3,47.5,28.59,SW,225,16.1,16.1,23,0.00,,,0.00,WeatherDisplay:10.37,2013-05-13 22:38:00,
2013-05-13 17:43:00,90.1,48.5,28.59,SW,225,16.1,16.1,24,0.00,,,0.00,WeatherDisplay:10.37,2013-05-13 22:43:00,
2013-05-13 17:48:00,90.0,47.2,28.59,SW,225,20.7,20.7,23,0.00,,,0.00,WeatherDisplay:10.37,2013-05-13 22:48:00,
2013-05-13 17:53:00,90.0,49.4,28.59,SW,225,16.1,16.1,25,0.00,,,0.00,WeatherDisplay:10.37,2013-05-13 22:53:00,
2013-05-13 17:59:00,90.0,49.4,28.59,SW,225,15.0,15.0,25,0.00,,,0.00,WeatherDisplay:10.37,2013-05-13 22:59:00,
2013-05-13 18:04:00,90.0,49.4,28.58,NW,315,12.7,12.7,25,0.00,,,0.00,WeatherDisplay:10.37,2013-05-13 23:04:00,
2013-05-13 18:09:00,90.1,48.5,28.58,NW,315,15.0,15.0,24,0.00,,,0.00,WeatherDisplay:10.37,2013-05-13 23:09:00,
2013-05-13 18:14:00,90.1,48.5,28.58,SW,225,15.0,15.0,24,0.00,,,0.00,WeatherDisplay:10.37,2013-05-13 23:14:00,
2013-05-13 18:19:00,90.1,49.6,28.59,SW,225,8.1,8.1,25,0.00,,,0.00,WeatherDisplay:10.37,2013-05-13 23:19:00,
2013-05-13 18:24:00,90.0,49.4,28.58,SW,225,10.4,10.4,25,0.00,,,0.00,WeatherDisplay:10.37,2013-05-13 23:24:00,
2013-05-13 18:30:00,90.0,50.5,28.58,WSW,240,6.0,14.0,26,0.00,,,0.00,WeatherDisplay:10.37,2013-05-13 23:30:00,
2013-05-13 18:35:00,89.6,49.1,28.58,South,180,8.1,8.1,25,0.00,,,0.00,WeatherDisplay:10.37,2013-05-13 23:35:00,
2013-05-13 18:40:00,89.4,50.0,28.58,SW,225,8.1,8.1,26,0.00,,,0.00,WeatherDisplay:10.37,2013-05-13 23:40:00,
2013-05-13 18:45:00,89.2,50.9,28.58,SW,225,6.9,6.9,27,0.00,,,0.00,WeatherDisplay:10.37,2013-05-13 23:45:00,
2013-05-13 18:50:00,89.1,49.7,28.58,North,0,5.8,5.8,26,0.00,,,0.00,WeatherDisplay:10.37,2013-05-13 23:50:00,
2013-05-13 18:55:00,89.2,49.9,28.58,South,180,4.6,4.6,26,0.00,,,0.00,WeatherDisplay:10.37,2013-05-13 23:55:00,
2013-05-13 19:00:00,89.2,48.8,28.58,SW,225,4.6,4.6,25,0.00,,,0.00,WeatherDisplay:10.37,2013-05-14 00:00:00,
2013-05-13 19:06:00,89.2,48.8,28.58,SW,225,3.5,3.5,25,0.00,,,0.00,WeatherDisplay:10.37,2013-05-14 00:06:00,
2013-05-13 19:11:00,89.2,48.8,28.58,NW,315,1.2,1.2,25,0.00,,,0.00,WeatherDisplay:10.37,2013-05-14 00:11:00,
2013-05-13 19:16:00,89.1,48.7,28.58,SW,225,2.3,2.3,25,0.00,,,0.00,WeatherDisplay:10.37,2013-05-14 00:16:00,
2013-05-13 19:21:00,88.7,49.4,28.58,SW,225,2.3,2.3,26,0.00,,,0.00,WeatherDisplay:10.37,2013-05-14 00:21:00,
2013-05-13 19:26:00,87.6,50.5,28.58,West,270,3.5,3.5,28,0.00,,,0.00,WeatherDisplay:10.37,2013-05-14 00:26:00,
2013-05-13 19:31:00,86.7,50.7,28.58,NW,315,2.3,2.3,29,0.00,,,0.00,WeatherDisplay:10.37,2013-05-14 00:31:00,
2013-05-13 19:36:00,86.4,50.3,28.58,West,270,1.2,0.0,29,0.00,,,0.00,WeatherDisplay:10.37,2013-05-14 00:36:00,
2013-05-13 19:41:00,86.5,50.5,28.58,West,270,1.2,0.0,29,0.00,,,0.00,WeatherDisplay:10.37,2013-05-14 00:41:00,
2013-05-13 19:46:00,86.4,50.3,28.58,West,270,1.2,0.0,29,0.00,,,0.00,WeatherDisplay:10.37,2013-05-14 00:46:00,
2013-05-13 19:52:00,85.5,50.5,28.58,West,270,2.3,2.3,30,0.00,,,0.00,WeatherDisplay:10.37,2013-05-14 00:52:00,
2013-05-13 19:57:00,85.1,49.3,28.58,West,270,3.5,3.5,29,0.00,,,0.00,WeatherDisplay:10.37,2013-05-14 00:57:00,
2013-05-13 20:02:00,84.9,50.0,28.58,NW,315,1.2,1.2,30,0.00,,,0.00,WeatherDisplay:10.37,2013-05-14 01:02:00,
2013-05-13 20:07:00,83.7,49.8,28.58,NW,315,1.2,0.0,31,0.00,,,0.00,WeatherDisplay:10.37,2013-05-14 01:07:00,
2013-05-13 20:12:00,82.6,49.7,28.58,West,270,0.0,0.0,32,0.00,,,0.00,WeatherDisplay:10.37,2013-05-14 01:12:00,
2013-05-13 20:18:00,82.0,50.1,28.58,West,270,1.2,1.2,33,0.00,,,0.00,WeatherDisplay:10.37,2013-05-14 01:18:00,
2013-05-13 20:23:00,81.7,49.8,28.58,SW,225,1.2,1.2,33,0.00,,,0.00,WeatherDisplay:10.37,2013-05-14 01:23:00,
2013-05-13 20:28:00,81.1,50.1,28.58,SW,225,1.2,0.0,34,0.00,,,0.00,WeatherDisplay:10.37,2013-05-14 01:28:00,
2013-05-13 20:33:00,80.2,50.1,28.58,NW,315,2.3,2.3,35,0.00,,,0.00,WeatherDisplay:10.37,2013-05-14 01:33:00,
2013-05-13 20:38:00,79.5,50.2,28.58,NW,315,1.2,0.0,36,0.00,,,0.00,WeatherDisplay:10.37,2013-05-14 01:38:00,
2013-05-13 20:43:00,78.8,50.3,28.58,West,270,2.3,2.3,37,0.00,,,0.00,WeatherDisplay:10.37,2013-05-14 01:43:00,
2013-05-13 20:48:00,77.5,50.6,28.58,South,180,2.3,2.3,39,0.00,,,0.00,WeatherDisplay:10.37,2013-05-14 01:48:00,
2013-05-13 20:53:00,76.5,51.0,28.58,SW,225,2.3,2.3,41,0.00,,,0.00,WeatherDisplay:10.37,2013-05-14 01:53:00,
2013-05-13 20:58:00,75.6,51.5,28.59,SW,225,2.3,2.3,43,0.00,,,0.00,WeatherDisplay:10.37,2013-05-14 01:58:00,
2013-05-13 21:04:00,75.4,51.3,28.58,SW,225,2.3,2.3,43,0.00,,,0.00,WeatherDisplay:10.37,2013-05-14 02:04:00,
2013-05-13 21:09:00,74.7,51.9,28.58,South,180,2.3,2.3,45,0.00,,,0.00,WeatherDisplay:10.37,2013-05-14 02:09:00,
2013-05-13 21:14:00,74.3,52.2,28.58,SW,225,2.3,2.3,46,0.00,,,0.00,WeatherDisplay:10.37,2013-05-14 02:14:00,
2013-05-13 21:19:00,73.8,52.8,28.58,South,180,3.5,3.5,48,0.00,,,0.00,WeatherDisplay:10.37,2013-05-14 02:19:00,
2013-05-13 21:24:00,73.2,53.5,28.58,South,180,3.5,3.5,50,0.00,,,0.00,WeatherDisplay:10.37,2013-05-14 02:24:00,
2013-05-13 21:29:00,72.0,53.4,28.58,South,180,4.6,4.6,52,0.00,,,0.00,WeatherDisplay:10.37,2013-05-14 02:29:00,
2013-05-13 21:35:00,71.6,53.6,28.58,South,180,3.5,3.5,53,0.00,,,0.00,WeatherDisplay:10.37,2013-05-14 02:35:00,
2013-05-13 21:40:00,71.2,53.7,28.58,South,180,4.6,4.6,54,0.00,,,0.00,WeatherDisplay:10.37,2013-05-14 02:40:00,
2013-05-13 21:45:00,70.0,53.6,28.59,SE,135,3.5,3.5,56,0.00,,,0.00,WeatherDisplay:10.37,2013-05-14 02:45:00,
2013-05-13 21:50:00,69.3,52.9,28.59,South,180,4.6,4.6,56,0.00,,,0.00,WeatherDisplay:10.37,2013-05-14 02:50:00,
2013-05-13 21:55:00,68.9,52.6,28.59,South,180,3.5,3.5,56,0.00,,,0.00,WeatherDisplay:10.37,2013-05-14 02:55:00,
2013-05-13 22:01:00,68.9,52.6,28.60,South,180,3.5,3.5,56,0.00,,,0.00,WeatherDisplay:10.37,2013-05-14 03:01:00,
2013-05-13 22:06:00,68.9,52.6,28.60,South,180,3.5,3.5,56,0.00,,,0.00,WeatherDisplay:10.37,2013-05-14 03:06:00,
2013-05-13 22:11:00,68.5,52.7,28.60,South,180,3.5,3.5,57,0.00,,,0.00,WeatherDisplay:10.37,2013-05-14 03:11:00,
2013-05-13 22:16:00,68.4,52.5,28.60,SW,225,3.5,3.5,57,0.00,,,0.00,WeatherDisplay:10.37,2013-05-14 03:16:00,
2013-05-13 22:21:00,67.8,53.0,28.60,South,180,3.5,3.5,59,0.00,,,0.00,WeatherDisplay:10.37,2013-05-14 03:21:00,
2013-05-13 22:26:00,67.1,52.3,28.60,South,180,3.5,3.5,59,0.00,,,0.00,WeatherDisplay:10.37,2013-05-14 03:26:00,
2013-05-13 22:32:00,66.9,52.1,28.60,SW,225,3.5,3.5,59,0.00,,,0.00,WeatherDisplay:10.37,2013-05-14 03:32:00,
2013-05-13 22:37:00,66.9,52.1,28.61,South,180,2.3,2.3,59,0.00,,,0.00,WeatherDisplay:10.37,2013-05-14 03:37:00,
2013-05-13 22:42:00,66.6,51.8,28.61,South,180,2.3,2.3,59,0.00,,,0.00,WeatherDisplay:10.37,2013-05-14 03:42:00,
2013-05-13 22:47:00,66.0,51.7,28.61,South,180,2.3,2.3,60,0.00,,,0.00,WeatherDisplay:10.37,2013-05-14 03:47:00,
2013-05-13 22:52:00,65.3,51.1,28.60,SW,225,1.2,1.2,60,0.00,,,0.00,WeatherDisplay:10.37,2013-05-14 03:52:00,
2013-05-13 22:58:00,65.3,51.9,28.60,SW,225,3.5,3.5,62,0.00,,,0.00,WeatherDisplay:10.37,2013-05-14 03:58:00,
2013-05-13 23:01:00,65.3,51.9,28.60,South,180,3.5,3.5,62,0.00,,,0.00,WeatherDisplay:10.37,2013-05-14 04:01:00,
2013-05-13 23:02:00,65.1,51.8,28.61,South,180,3.5,3.5,62,0.00,,,0.00,WeatherDisplay:10.37,2013-05-14 04:02:00,
2013-05-13 23:03:00,65.1,51.8,28.61,South,180,3.5,3.5,62,0.00,,,0.00,WeatherDisplay:10.37,2013-05-14 04:03:00,
2013-05-13 23:08:00,65.1,51.8,28.61,South,180,3.5,3.5,62,0.00,,,0.00,WeatherDisplay:10.37,2013-05-14 04:08:00,
2013-05-13 23:13:00,64.0,51.6,28.61,South,180,3.5,3.8,64,0.00,,,0.00,WeatherDisplay:10.37,2013-05-14 04:13:00,
2013-05-13 23:19:00,64.2,51.8,28.60,SE,135,4.6,4.6,64,0.00,,,0.00,WeatherDisplay:10.37,2013-05-14 04:19:00,
2013-05-13 23:24:00,64.4,51.5,28.61,SW,225,3.5,3.5,63,0.00,,,0.00,WeatherDisplay:10.37,2013-05-14 04:24:00,
2013-05-13 23:29:00,64.2,51.4,28.61,South,180,3.5,0.0,63,0.00,,,0.00,WeatherDisplay:10.37,2013-05-14 04:29:00,
2013-05-13 23:34:00,63.9,51.0,28.60,South,180,1.2,0.0,63,0.00,,,0.00,WeatherDisplay:10.37,2013-05-14 04:34:00,
2013-05-13 23:39:00,64.0,51.2,28.60,South,180,1.2,0.0,63,0.00,,,0.00,WeatherDisplay:10.37,2013-05-14 04:39:00,
2013-05-13 23:45:00,64.4,51.5,28.61,South,180,2.3,2.3,63,0.00,,,0.00,WeatherDisplay:10.37,2013-05-14 04:45:00,
2013-05-13 23:50:00,64.4,51.5,28.60,South,180,2.3,2.3,63,0.00,,,0.00,WeatherDisplay:10.37,2013-05-14 04:50:00,
2013-05-13 23:55:00,63.7,51.7,28.60,South,180,3.5,3.5,65,0.00,,,0.00,WeatherDisplay:10.37,2013-05-14 04:55:00,